EW9060 Weather Reports


time (UTC)temp
F
wind
direction
speed
knots
gust
knots
rain 1hr
in
rain 24hr
in
rain mn
in
humidity
%
barometer
mb
20260906160044 64 165 1.7 6.1 0.00 0.00 0.00 71 1015.2
20260906154542 63 129 2.6 6.1 0.00 0.00 0.00 73 1015.2
20260906153040 62 184 3.5 7.0 0.00 0.00 0.00 74 1015.2
20260906151540 61 148 2.6 8.7 0.00 0.00 0.00 76 1015.1
20260906150037 60 11 1.7 8.7 0.00 0.00 0.00 77 1015.2
20260906144537 59 12 1.7 7.8 0.00 0.00 0.00 78 1015.1
20260906143036 59 14 2.6 4.3 0.00 0.00 0.00 79 1014.9
20260906141531 58 136 0.9 6.1 0.00 0.00 0.00 79 1014.7
20260906140032 58 93 2.6 5.2 0.00 0.00 0.00 79 1014.5
20260906134528 58 167 1.7 7.0 0.00 0.00 0.00 78 1014.4
20260906133029 58 167 3.5 5.2 0.00 0.00 0.00 77 1014.3
20260906131535 59 161 0.9 6.1 0.00 0.00 0.00 76 1014.3
20260906130021 59 171 2.6 6.1 0.00 0.00 0.00 76 1014.0
20260906124520 59 179 0.9 7.0 0.00 0.00 0.00 75 1013.9
20260906123018 59 165 0.9 5.2 0.00 0.00 0.00 75 1013.9
20260906121517 60 171 1.7 5.2 0.00 0.00 0.00 74 1013.9
20260906120016 60 200 2.6 7.8 0.00 0.00 0.00 74 1013.9
20260906114515 60 192 2.6 7.0 0.00 0.00 0.00 73 1014.1
20260906113020 60 209 1.7 6.1 0.00 0.00 0.00 73 1014.1
20260906111512 60 175 0.0 8.7 0.00 0.00 0.00 72 1014.0
20260906110011 60 157 0.9 6.1 0.00 0.00 0.00 72 1013.8
20260906104519 60 152 0.9 4.3 0.00 0.00 0.00 71 1013.8
20260906103009 60 144 2.6 6.1 0.00 0.00 0.00 71 1013.9
20260906101508 61 140 1.7 5.2 0.00 0.00 0.00 70 1013.9
20260906100006 61 134 0.9 6.1 0.00 0.00 0.00 70 1014.0
20260906094513 61 152 0.9 6.1 0.00 0.00 0.00 69 1014.0
20260906093002 61 152 2.6 7.0 0.00 0.00 0.00 68 1014.0
20260906091500 62 140 1.7 7.0 0.00 0.00 0.00 67 1014.0
20260906090100 62 145 1.7 6.1 0.00 0.00 0.00 67 1014.0
20260906084558 62 186 2.6 7.0 0.00 0.00 0.00 66 1014.1
20260906083100 63 152 2.6 7.0 0.00 0.00 0.00 64 1014.2
20260906081558 63 111 2.6 7.8 0.00 0.00 0.00 63 1014.1
20260906080059 64 113 1.7 5.2 0.00 0.00 0.00 61 1014.0
20260906074550 64 128 2.6 6.1 0.00 0.00 0.00 60 1014.0
20260906073047 64 123 0.9 4.3 0.00 0.00 0.00 59 1014.0
20260906071557 65 153 0.9 2.6 0.00 0.00 0.00 58 1014.0
20260906070043 65 168 0.9 4.3 0.00 0.00 0.00 57 1014.0
20260906064543 66 232 0.0 4.3 0.00 0.00 0.00 56 1013.9
20260906063042 67 186 0.0 3.5 0.00 0.00 0.00 54 1014.0
20260906061542 67 156 1.7 3.5 0.00 0.00 0.00 52 1014.1
20260906060041 68 221 0.9 4.3 0.00 0.00 0.00 49 1014.1
20260906054541 69 214 0.9 4.3 0.00 0.00 0.00 46 1014.1
20260906053047 70 219 0.0 4.3 0.00 0.00 0.00 43 1014.1
20260906051539 70 186 0.0 4.3 0.00 0.00 0.00 41 1014.1
20260906050042 71 264 0.9 4.3 0.00 0.00 0.00 41 1014.1
20260906044539 71 264 0.0 5.2 0.00 0.00 0.00 40 1014.0
20260906043040 72 238 0.0 5.2 0.00 0.00 0.00 40 1013.9
20260906041538 73 186 1.7 5.2 0.00 0.00 0.00 40 1013.8
20260906040039 73 203 2.6 6.1 0.00 0.00 0.00 42 1013.7
20260906034544 74 202 2.6 6.1 0.00 0.00 0.00 42 1013.5
20260906033036 75 173 0.0 7.0 0.00 0.00 0.00 41 1013.4
20260906031536 76 213 0.9 7.8 0.00 0.00 0.00 41 1013.2
20260906030035 77 172 0.0 10.4 0.00 0.00 0.00 40 1013.1
20260906024534 78 185 1.7 7.0 0.00 0.00 0.00 39 1013.1
20260906023033 79 200 0.9 6.1 0.00 0.00 0.00 38 1013.0
20260906021531 80 207 2.6 9.6 0.00 0.00 0.00 38 1013.0
20260906020038 81 185 2.6 7.8 0.00 0.00 0.00 36 1013.0
20260906014545 83 223 3.5 10.4 0.00 0.00 0.00 29 1012.9
20260906013032 84 155 1.7 7.8 0.00 0.00 0.00 27 1012.9
20260906011537 84 194 2.6 7.8 0.00 0.00 0.00 28 1013.0
20260906010028 85 146 2.6 7.0 0.00 0.00 0.00 28 1013.1
20260906004536 85 161 1.7 7.8 0.00 0.00 0.00 28 1013.1
20260906003043 85 192 1.7 9.6 0.00 0.00 0.00 28 1013.1
20260906001526 86 319 1.7 6.1 0.00 0.00 0.00 30 1013.0
20260906000023 85 182 4.3 10.4 0.00 0.00 0.00 29 1013.1
20260905234524 86 189 0.9 3.5 0.00 0.00 0.00 29 1013.2
20260905233020 86 157 0.9 7.0 0.00 0.00 0.00 29 1013.2
20260905231517 86 212 1.7 7.0 0.00 0.00 0.00 29 1013.4
20260905230016 85 258 0.9 7.8 0.00 0.00 0.00 30 1013.5
20260905224522 86 171 2.6 6.1 0.00 0.00 0.00 29 1013.7
20260905223007 84 130 0.9 5.2 0.00 0.00 0.00 30 1013.8
20260905221505 84 272 0.9 7.0 0.00 0.00 0.00 33 1013.8
20260905220005 83 288 0.0 3.5 0.00 0.00 0.00 33 1014.1
20260905214501 84 344 0.0 4.3 0.00 0.00 0.00 34 1014.2
20260905213058 83 61 0.9 5.2 0.00 0.00 0.00 32 1014.4
20260905211554 83 134 2.6 7.8 0.00 0.00 0.00 31 1014.6
20260905210052 81 226 0.0 4.3 0.00 0.00 0.00 35 1014.7
20260905204559 81 149 1.7 6.1 0.00 0.00 0.00 33 1014.8
20260905203055 80 235 0.9 7.0 0.00 0.00 0.00 33 1015.0
20260905201546 79 102 1.7 7.0 0.00 0.00 0.00 39 1014.9
20260905200052 79 154 1.7 6.1 0.00 0.00 0.00 41 1015.0
20260905194547 78 360 0.9 3.5 0.00 0.00 0.00 44 1015.2
20260905193037 77 79 0.9 4.3 0.00 0.00 0.00 45 1015.3
20260905191534 76 57 1.7 4.3 0.00 0.00 0.00 46 1015.5
20260905190034 75 105 1.7 4.3 0.00 0.00 0.00 50 1015.5
20260905184533 74 125 1.7 5.2 0.00 0.00 0.00 51 1015.6
20260905183026 73 169 1.7 4.3 0.00 0.00 0.00 54 1015.7
20260905181531 72 96 0.0 3.5 0.00 0.00 0.00 57 1015.7
20260905180019 71 65 0.9 3.5 0.00 0.00 0.00 58 1015.7
20260905174518 71 360 0.0 5.2 0.00 0.00 0.00 59 1015.7
20260905173015 69 67 2.6 5.2 0.00 0.00 0.00 61 1015.5
20260905171522 68 46 0.0 2.6 0.00 0.00 0.00 65 1015.5
20260905170006 67 220 0.0 2.6 0.00 0.00 0.00 66 1015.4
20260905164502 66 115 0.9 4.3 0.00 0.00 0.00 68 1015.6
20260905163100 65 53 1.7 3.5 0.00 0.00 0.00 70 1015.4
20260905161555 64 75 0.9 2.6 0.00 0.00 0.00 72 1015.5